{"data":{"norad_id":65082,"intl_designator":"2025-167E","name":"STARLINK-34626","alt_names":[],"object_type":"PAYLOAD","status":"ACTIVE","operator":null,"country":"US","launch_date":"2025-08-04","launch_site_code":"AFETR","launch_vehicle":null,"mission":null,"orbit_class":"UNKNOWN","rcs_meters":null,"size_class":null,"mass_kg":null,"dimensions":null,"purposes":["comms"],"wikipedia_slug":null,"has_3d_model":false,"image_url":null,"decayed_at":null,"tle_current":{"epoch":"2026-09-20T05:16:24.767904Z","epoch_age_seconds":144463,"freshness":"FRESH","line1":"1 65082U 25167E   26263.21973111  .00015707  00000+0  47480-3 0  9991","line2":"2 65082  53.1579 195.3290 0001472  74.3668 285.7497 15.34414893 63373","mean_motion":15.34414893,"eccentricity":0.0001472,"inclination_deg":53.1579,"raan_deg":195.329,"arg_perigee_deg":74.3668,"mean_anomaly_deg":285.7497,"bstar":0.0004748,"rev_number":6337,"period_min":93.846847196888,"perigee_km":461.652010263,"apogee_km":463.66594059816,"semimajor_km":6840.7959754306,"source":"CELESTRAK","updated_at":"2026-09-21T09:00:35.521547Z"}}}